Location: Brunembert
(50.7122°N, 1.8935°E)
Time: 09:13:46
(UTC+00:00)

RESURS DK-1 - Pass Details

Date: 22 April 2021
Orbit: 553 x 563 km, 69.9° (Epoch: 16 May)

Event Time Altitude Azimuth Distance (km) Brightness Sun altitude
Rises 20:08:37 0° 230° (SW) 2,731 6.1 -10.5°
Reaches altitude 10° 20:10:54 10° 237° (WSW) 1,842 5.3 -10.8°
Maximum altitude 20:14:49 41° 309° (NW) 822 3.9 -11.3°
Drops below altitude 10° 20:18:46 10° 20° (NNE) 1,860 5.2 -11.8°
Sets 20:21:05 0° 28° (NNE) 2,762 6.0 -12.1°
